Weather in Vinogradny

Russia / Rostov Oblast     48°00′00″N   40°54′45″E
temp.,
°C
wind,
m/s
gust,
m/s
humid.,
%
clouds,
%
prec.,
mm/h
press.,
hPa
HPBL,
m
22 may, sun
sun2200:00+13sw91893100 5.3 1005688
03:00+12wsw101991100 6.3 1003676
06:00+12wsw91894100 3.6 1002561
09:00+15wsw91585100 3.7 1001880
12:00+16wsw71286100 0.1 10001057
15:00+15wsw91386100 1.1 1000944
18:00+15wsw71279100 1.1 999618
21:00+12wsw6128862 1.9 1000315
23 may, mon
mon2300:00+10wsw511925 0.1 1000291
03:00+9wsw411935 0.1 1000289
06:00+10w5119129 0.0 1001710
09:00+11nw788197 0.1 1003896
12:00+11n6873100 0.1 10051221
15:00+12nne4567100 0.1 1005993
18:00+13n3566100 0.0 1006876
21:00+9wnw1173100 0.0 100810
24 may, tue
tue2400:00+10nnw3471100 0.0 1009123
03:00+7ne3674100 0.0 1010118
06:00+8nne227342 0.0 101192
09:00+12nnw34585 0.0 1012803
12:00+15nw444875 0.0 10112178
15:00+14w3556100 0.0 1012808
18:00+13wsw3665100 0.0 1013257
21:00+12w3567100 0.0 101492
25 may, wed
wed2500:00+9w3370100 0.0 101535
03:00+8w3973100 0.0 1015155
06:00+10w287848 0.0 1016272
09:00+15wnw57605 0.0 1017988
12:00+18wnw685499 0.5 10171692
15:00+18wnw4755100 0.6 10171372
18:00+16w466826 0.2 1018357
21:00+12wsw368368 0.2 1019101
26 may, thu
thu2600:00+11w487891 0.1 1019169
03:00+10w338466 0.1 101932
06:00+13wsw247874 0.0 1019149
09:00+16wsw366721 0.0 1019394
12:00+21wsw664379 0.0 10182557
15:00+20wsw685498 0.0 10181327
18:00+18wsw7105719 0.0 1016724
21:00+15wsw81455100 0.0 1016794